Westhampton Beach, NY

11:55 AM EDT on September 25, 2017 (GMT -0400)
The Gabreski

Weather History for KFOK - August, 2014

Change the Weather History Date:

Saturday, August 30, 2014

  Actual Average Record
Temperature  
Mean Temperature 62 °F -  
Max Temperature 77 °F 75 °F 90 °F (2010)
Min Temperature 48 °F 58 °F 48 °F (2014)
Degree Days  
Heating Degree Days 4    
Growing Degree Days 12 (Base 50)    
Moisture  
Dew Point 56 °F    
Average Humidity 70    
Maximum Humidity 86    
Minimum Humidity 55    
Precipitation  
Precipitation 0.00 in - - ()
Sea Level Pressure  
Sea Level Pressure 30.26 in    
Wind  
Wind Speed 4 mph (South)    
Max Wind Speed 14 mph    
Max Gust Speed 21 mph    
Visibility 10 miles    
Events Rain    
Averages and records for this station are not official NWS values.
T = Trace of Precipitation, MM = Missing Value Source: NWS Daily Summary

Daily Weather History Graph

Daily Weather History Graph

Search for Another Location

Airport or City:

Trip Planner

Search our weather history database for the weather conditions in past years. The results will help you decide how hot, cold, wet, or windy it might be!

Date:

Astronomy

Aug. 30, 2014 Rise Set
Actual Time 6:15 AM EDT 7:26 PM EDT
Civil Twilight 5:47 AM EDT 7:54 PM EDT
Nautical Twilight 5:13 AM EDT 8:28 PM EDT
Astronomical Twilight 4:37 AM EDT 9:03 PM EDT
Moon 11:02 AM EDT (8/30) 9:56 PM EDT (8/30)
Length of Visible Light 14h 07m
Length of Day
13h 10m
Waxing Crescent, 23% of the Moon is Illuminated
Aug 30
Waxing Crescent
Sep 2
First Quarter
Sep 8
Full
Sep 15
Last Quarter
Sep 24
New

Hourly Weather History & Observations

Time (EDT) Temp. Dew Point Humidity Pressure Visibility Wind Dir Wind Speed Gust Speed Precip Events Conditions
12:35 AM 54.0 °F 48.0 °F 80% 30.28 in 10.0 mi Calm Calm - N/A   Mostly Cloudy
12:53 AM 53.1 °F 48.0 °F 83% 30.29 in 10.0 mi Calm Calm - N/A   Mostly Cloudy
1:00 AM 52.0 °F 46.9 °F 83% 30.29 in 10.0 mi Calm Calm - N/A   Scattered Clouds
1:53 AM 52.0 °F 46.9 °F 83% 30.29 in 10.0 mi Calm Calm - N/A   Clear
2:53 AM 52.0 °F 46.9 °F 83% 30.29 in 10.0 mi Calm Calm - N/A   Clear
4:53 AM 48.9 °F 45.0 °F 86% 30.29 in 10.0 mi Calm Calm - N/A   Clear
5:53 AM 48.0 °F 44.1 °F 86% 30.30 in 10.0 mi Calm Calm - N/A   Clear
6:53 AM 51.1 °F 46.9 °F 86% 30.31 in 10.0 mi Calm Calm - N/A   Clear
7:53 AM 66.0 °F 60.1 °F 81% 30.30 in 10.0 mi SE 3.5 mph - N/A   Clear
8:53 AM 71.1 °F 57.9 °F 63% 30.30 in 10.0 mi Variable 6.9 mph - N/A   Clear
9:53 AM 73.0 °F 57.9 °F 59% 30.30 in 10.0 mi Variable 6.9 mph - N/A   Clear
10:53 AM 73.9 °F 57.9 °F 57% 30.30 in 10.0 mi South 9.2 mph 18.4 mph N/A   Partly Cloudy
11:53 AM 75.0 °F 57.9 °F 55% 30.29 in 10.0 mi SSW 11.5 mph 16.1 mph N/A   Partly Cloudy
12:53 PM 75.0 °F 57.9 °F 55% 30.27 in 10.0 mi SSW 11.5 mph 20.7 mph N/A   Partly Cloudy
1:53 PM 75.0 °F 59.0 °F 57% 30.27 in 10.0 mi SSE 13.8 mph - N/A   Scattered Clouds
2:53 PM 75.9 °F 60.1 °F 58% 30.25 in 10.0 mi SSE 10.4 mph - N/A   Partly Cloudy
3:32 PM 75.0 °F 60.1 °F 60% 30.24 in 10.0 mi South 11.5 mph - 0.00 in Rain Light Rain
3:53 PM 75.0 °F 60.1 °F 60% 30.24 in 10.0 mi South 10.4 mph 19.6 mph 0.00 in   Mostly Cloudy
4:07 PM 75.0 °F 60.1 °F 60% 30.23 in 10.0 mi South 10.4 mph - N/A   Scattered Clouds
4:53 PM 73.9 °F 60.1 °F 62% 30.22 in 10.0 mi South 9.2 mph - N/A   Scattered Clouds
5:53 PM 73.9 °F 62.1 °F 66% 30.21 in 10.0 mi South 12.7 mph - N/A   Partly Cloudy
7:53 PM 71.1 °F 63.0 °F 75% 30.19 in 10.0 mi South 6.9 mph - N/A   Overcast
8:53 PM 72.0 °F 63.0 °F 73% 30.20 in 10.0 mi South 8.1 mph - N/A   Overcast
9:53 PM 72.0 °F 64.0 °F 76% 30.20 in 10.0 mi SSW 8.1 mph - N/A   Overcast